Location: Benque
(43.2594°N, 0.9178°E)
Time: 17:55:08
(UTC+00:00)

Cosmos 1455 - Pass Details

Date: 24 January 2020
Orbit: 498 x 524 km, 82.5° (Epoch: 22 February)

Event Time Altitude Azimuth Distance (km) Brightness Sun altitude
Rises 18:47:12 0° 343° (NNW) 2,636 5.9 -20.0°
Reaches altitude 10° 18:49:28 10° 334° (NNW) 1,740 5.1 -20.4°
Maximum altitude 18:52:56 34° 268° (W) 849 3.9 -21.0°
Drops below altitude 10° 18:56:22 10° 202° (SSW) 1,712 5.2 -21.6°
Sets 18:58:35 0° 193° (SSW) 2,587 6.0 -22.0°
